Buger, Spain

4:06 AM CET on November 22, 2017 (GMT +0100)
Buger

Weather History for 08306 - October, 2013

Change the Weather History Date:

Sunday, October 20, 2013

  Actual Average Record
Temperature  
Mean Temperature 71 °F -  
Max Temperature 80 °F 67 °F - ()
Min Temperature 62 °F 49 °F - ()
Cooling Degree Days 6    
Growing Degree Days 21 (Base 50)    
Moisture  
Dew Point 65 °F    
Average Humidity 84    
Maximum Humidity 95    
Minimum Humidity 55    
Precipitation  
Precipitation 0.00 in 0.07 in - ()
Sea Level Pressure  
Sea Level Pressure 30.07 in    
Wind  
Wind Speed 2 mph ()    
Max Wind Speed 12 mph    
Max Gust Speed -    
Visibility 6.6 miles    
Events Fog , Rain    
T = Trace of Precipitation, MM = Missing Value Source: Averaged Metar Reports

Daily Weather History Graph

Daily Weather History Graph

Search for Another Location

Airport or City:

Trip Planner

Search our weather history database for the weather conditions in past years. The results will help you decide how hot, cold, wet, or windy it might be!

Date:

Astronomy

Oct. 20, 2013 Rise Set
Actual Time 8:04 AM CEST 7:02 PM CEST
Civil Twilight 7:37 AM CEST 7:30 PM CEST
Nautical Twilight 7:05 AM CEST 8:01 PM CEST
Astronomical Twilight 6:34 AM CEST 8:32 PM CEST
Moon 8:01 PM CEST (10/20) 9:26 AM CEST (10/20)
Length of Visible Light 11h 53m
Length of Day
10h 58m
Full, 98% of the Moon is Illuminated
Oct 20
Full
Oct 27
Last Quarter
Nov 3
New
Nov 10
First Quarter
Nov 17
Full

Hourly Weather History & Observations

Time (CEST) Temp. Dew Point Humidity Pressure Visibility Wind Dir Wind Speed Gust Speed Precip Events Conditions
12:00 AM 68.0 °F 66.2 °F 94% 30.06 in 6.2 mi Calm Calm - N/A   Scattered Clouds
12:30 AM 68.0 °F 64.4 °F 88% 30.06 in 6.2 mi East 1.2 mph - N/A   Scattered Clouds
1:00 AM 68.0 °F 64.4 °F 88% 30.06 in 6.2 mi Calm Calm - N/A   Scattered Clouds
1:30 AM 68.0 °F 64.4 °F 88% 30.06 in 6.2 mi Calm Calm - N/A   Scattered Clouds
2:00 AM 67 °F 65 °F 91% 30.07 in 12 mi NE 2.3 mph - -   Partly Cloudy
2:00 AM 68.0 °F 64.4 °F 88% 30.06 in 6.2 mi Calm Calm - N/A   Partly Cloudy
2:30 AM 66.2 °F 64.4 °F 94% 30.04 in 6.2 mi NE 2.3 mph - N/A   Partly Cloudy
3:00 AM 66.2 °F 62.6 °F 88% 30.04 in 6.2 mi ENE 3.5 mph - N/A   Partly Cloudy
3:30 AM 66.2 °F 62.6 °F 88% 30.04 in 6.2 mi Calm Calm - N/A   Partly Cloudy
4:00 AM 64.4 °F 62.6 °F 94% 30.04 in 6.2 mi Calm Calm - N/A   Partly Cloudy
4:30 AM 64.4 °F 62.6 °F 94% 30.04 in 6.2 mi ENE 2.3 mph - N/A   Partly Cloudy
5:00 AM 64.4 °F 62.6 °F 94% 30.04 in 6.2 mi Variable 1.2 mph - N/A   Partly Cloudy
5:30 AM 64.4 °F 62.6 °F 94% 30.04 in 6.2 mi Calm Calm - N/A   Partly Cloudy
6:00 AM 64.4 °F 62.6 °F 94% 30.04 in 6.2 mi Variable 1.2 mph - N/A   Partly Cloudy
6:30 AM 66.2 °F 64.4 °F 94% 30.04 in 6.2 mi Variable 2.3 mph - N/A   Partly Cloudy
7:00 AM 64.4 °F 62.6 °F 94% 30.04 in 6.2 mi Calm Calm - N/A   Partly Cloudy
7:30 AM 62.6 °F 60.8 °F 94% 30.04 in 6.2 mi Variable 1.2 mph - N/A   Partly Cloudy
8:00 AM 62 °F 61 °F 95% 30.06 in 6 mi ENE 3.5 mph - -   Mist
8:00 AM 62.6 °F 60.8 °F 94% 30.06 in 6.2 mi Variable 1.2 mph - N/A Fog Partly Cloudy
8:30 AM 62.6 °F 60.8 °F 94% 30.06 in 6.2 mi Variable 1.2 mph - N/A   Partly Cloudy
9:00 AM 64.4 °F 62.6 °F 94% 30.06 in 6.2 mi Variable 1.2 mph - N/A   Partly Cloudy
9:30 AM 66.2 °F 64.4 °F 94% 30.09 in 6.2 mi Calm Calm - N/A   Partly Cloudy
10:00 AM 66.2 °F 64.4 °F 94% 30.09 in 6.2 mi North 3.5 mph - N/A   Partly Cloudy
10:30 AM 68.0 °F 64.4 °F 88% 30.09 in 6.2 mi Variable 1.2 mph - N/A Rain Light Rain
11:00 AM 71.6 °F 66.2 °F 83% 30.09 in 6.2 mi Variable 2.3 mph - N/A   Partly Cloudy
11:30 AM 73.4 °F 66.2 °F 78% 30.09 in 6.2 mi Calm Calm - N/A   Partly Cloudy
12:00 PM 75.2 °F 66.2 °F 73% 30.09 in 6.2 mi Variable 1.2 mph - N/A   Partly Cloudy
12:30 PM 77.0 °F 66.2 °F 69% 30.09 in 6.2 mi Variable 2.3 mph - N/A   Partly Cloudy
1:00 PM 77.0 °F 68.0 °F 74% 30.09 in 6.2 mi West 1.2 mph - N/A   Partly Cloudy
1:30 PM 78.8 °F 66.2 °F 65% 30.09 in 6.2 mi WSW 4.6 mph - N/A   Scattered Clouds
2:00 PM 79 °F 66 °F 55% 30.09 in 16 mi SW 9.2 mph - -   Partly Cloudy
2:00 PM 77.0 °F 66.2 °F 69% 30.09 in 6.2 mi SW 9.2 mph - N/A   Scattered Clouds
2:30 PM 78.8 °F 66.2 °F 65% 30.09 in 6.2 mi WSW 11.5 mph - N/A   Scattered Clouds
3:00 PM 77.0 °F 68.0 °F 74% 30.06 in 6.2 mi SW 11.5 mph - N/A   Partly Cloudy
3:30 PM 78.8 °F 68.0 °F 69% 30.06 in 6.2 mi SW 9.2 mph - N/A   Partly Cloudy
4:00 PM 77.0 °F 68.0 °F 74% 30.06 in 6.2 mi SW 9.2 mph - N/A   Partly Cloudy
4:30 PM 77.0 °F 68.0 °F 74% 30.06 in 6.2 mi SW 9.2 mph - N/A   Partly Cloudy
5:00 PM 77.0 °F 68.0 °F 74% 30.06 in 6.2 mi SSW 8.1 mph - N/A   Partly Cloudy
5:30 PM 75.2 °F 68.0 °F 78% 30.06 in 6.2 mi SSW 5.8 mph - N/A   Partly Cloudy
6:00 PM 75.2 °F 68.0 °F 78% 30.06 in 6.2 mi SSW 5.8 mph - N/A   Partly Cloudy
6:30 PM 75.2 °F 68.0 °F 78% 30.06 in 6.2 mi SSW 5.8 mph - N/A   Partly Cloudy
7:00 PM 73.4 °F 68.0 °F 83% 30.06 in 6.2 mi SW 2.3 mph - N/A   Partly Cloudy
7:30 PM 73.4 °F 66.2 °F 78% 30.06 in 6.2 mi Calm Calm - N/A   Partly Cloudy
8:00 PM 72 °F 66 °F 77% 30.08 in 9 mi Calm Calm - -   Scattered Clouds
8:00 PM 71.6 °F 66.2 °F 83% 30.06 in 6.2 mi Calm Calm - N/A   Partly Cloudy
8:30 PM 71.6 °F 66.2 °F 83% 30.09 in 6.2 mi SE 2.3 mph - N/A   Partly Cloudy
9:00 PM 69.8 °F 64.4 °F 83% 30.09 in 6.2 mi Calm Calm - N/A   Partly Cloudy
9:30 PM 68.0 °F 64.4 °F 88% 30.09 in 6.2 mi Calm Calm - N/A   Partly Cloudy
10:00 PM 66.2 °F 64.4 °F 94% 30.09 in 6.2 mi Calm Calm - N/A   Partly Cloudy
10:30 PM 66.2 °F 64.4 °F 94% 30.09 in 6.2 mi ENE 3.5 mph - N/A   Partly Cloudy
11:00 PM 66.2 °F 64.4 °F 94% 30.09 in 6.2 mi Calm Calm - N/A   Partly Cloudy
11:30 PM 64.4 °F 62.6 °F 94% 30.12 in 6.2 mi Variable 2.3 mph - N/A   Partly Cloudy